Tirana, Albania

2:02 AM CEST on August 31, 2016 (GMT +0200)
Tirana

Weather History for 13615 - May, 2013

Change the Weather History Date:

Saturday, May 11, 2013

  Actual Average Record
Temperature  
Mean Temperature 66 °F -  
Max Temperature 78 °F 76 °F - ()
Min Temperature 55 °F 59 °F - ()
Cooling Degree Days 2    
Growing Degree Days 16 (Base 50)    
Moisture  
Dew Point 58 °F    
Average Humidity 76    
Maximum Humidity 94    
Minimum Humidity 39    
Precipitation  
Precipitation 0.00 in -13.12 in - ()
Sea Level Pressure  
Sea Level Pressure 29.85 in    
Wind  
Wind Speed 3 mph ()    
Max Wind Speed 13 mph    
Max Gust Speed -    
Visibility 6.2 miles    
Events Rain    
T = Trace of Precipitation, MM = Missing Value Source: Averaged Metar Reports

Daily Weather History Graph

Daily Weather History Graph

Search for Another Location

Airport or City:

Trip Planner

Search our weather history database for the weather conditions in past years. The results will help you decide how hot, cold, wet, or windy it might be!

Date:

Astronomy

May. 11, 2013 Rise Set
Actual Time 5:26 AM CEST 7:49 PM CEST
Civil Twilight 4:55 AM CEST 8:20 PM CEST
Nautical Twilight 4:16 AM CEST 8:59 PM CEST
Astronomical Twilight 3:34 AM CEST 9:42 PM CEST
Moon 6:20 AM CEST (5/11) 9:14 PM CEST (5/11)
Length of Visible Light 15h 25m
Length of Day
14h 22m
New Moon, 2% of the Moon is Illuminated
May 11
New Moon
May 18
First Quarter
May 25
Full
May 31
Last Quarter
Jun 8
New

Hourly Weather History & Observations

Time (CEST) Temp. Dew Point Humidity Pressure Visibility Wind Dir Wind Speed Gust Speed Precip Events Conditions
12:20 AM 60.8 °F 57.2 °F 88% 29.92 in 6.2 mi Calm Calm - N/A   Scattered Clouds
12:50 AM 59.0 °F 57.2 °F 94% 29.92 in 6.2 mi Variable 2.3 mph - N/A   Scattered Clouds
1:20 AM 59.0 °F 55.4 °F 88% 29.92 in 6.2 mi Calm Calm - N/A   Mostly Cloudy
1:50 AM 59.0 °F 55.4 °F 88% 29.92 in 6.2 mi SSE 2.3 mph - N/A   Scattered Clouds
2:20 AM 57.2 °F 55.4 °F 94% 29.92 in 6.2 mi South 4.6 mph - N/A   Scattered Clouds
2:50 AM 57.2 °F 53.6 °F 88% 29.92 in 6.2 mi SE 3.5 mph - N/A   Scattered Clouds
3:20 AM 57.2 °F 55.4 °F 94% 29.89 in - ESE 3.5 mph - N/A   Clear
3:50 AM 57.2 °F 55.4 °F 94% 29.89 in - Variable 2.3 mph - N/A   Clear
4:20 AM 57.2 °F 53.6 °F 88% 29.89 in - Variable 2.3 mph - N/A   Clear
4:50 AM 57.2 °F 53.6 °F 88% 29.89 in - Variable 2.3 mph - N/A   Clear
5:00 AM 56 °F 54 °F 90% 29.88 in 6 mi SSE 2.2 mph - -  
5:20 AM 55.4 °F 53.6 °F 94% 29.86 in - South 3.5 mph - N/A   Clear
5:50 AM 55.4 °F 53.6 °F 94% 29.86 in - Variable 1.2 mph - N/A   Clear
6:20 AM 57.2 °F 55.4 °F 94% 29.86 in - Calm Calm - N/A   Clear
6:50 AM 59.0 °F 55.4 °F 88% 29.86 in 6.2 mi South 3.5 mph - N/A   Mostly Cloudy
7:20 AM 59.0 °F 55.4 °F 88% 29.86 in 6.2 mi SSW 4.6 mph - N/A   Scattered Clouds
7:50 AM 64.4 °F 57.2 °F 77% 29.86 in 6.2 mi SE 3.5 mph - N/A   Partly Cloudy
8:20 AM 64.4 °F 59.0 °F 83% 29.89 in 6.2 mi Variable 2.3 mph - N/A   Partly Cloudy
8:50 AM 66.2 °F 57.2 °F 73% 29.86 in 6.2 mi Variable 2.3 mph - N/A   Scattered Clouds
9:20 AM 71.6 °F 57.2 °F 60% 29.86 in 6.2 mi Calm Calm - N/A   Scattered Clouds
10:20 AM 73.4 °F 55.4 °F 53% 29.86 in 6.2 mi West 3.5 mph - N/A   Scattered Clouds
10:50 AM 75.2 °F 57.2 °F 53% 29.86 in 6.2 mi Calm Calm - N/A   Scattered Clouds
11:00 AM 75 °F 56 °F 41% 29.87 in 28 mi 2.2 mph - -  
11:20 AM 75.2 °F 55.4 °F 50% 29.86 in 6.2 mi Calm Calm - N/A   Scattered Clouds
11:50 AM 77.0 °F 51.8 °F 41% 29.86 in 6.2 mi SW 3.5 mph - N/A   Scattered Clouds
12:20 PM 78.8 °F 51.8 °F 39% 29.83 in 6.2 mi West 3.5 mph - N/A   Scattered Clouds
12:50 PM 75.2 °F 60.8 °F 61% 29.83 in 6.2 mi West 11.5 mph - N/A   Mostly Cloudy
1:20 PM 75.2 °F 60.8 °F 61% 29.83 in 6.2 mi WSW 12.7 mph - N/A   Scattered Clouds
1:50 PM 75.2 °F 59.0 °F 57% 29.83 in 6.2 mi WSW 12.7 mph - N/A   Scattered Clouds
2:20 PM 75.2 °F 59.0 °F 57% 29.83 in 6.2 mi West 9.2 mph - N/A   Scattered Clouds
2:50 PM 73.4 °F 59.0 °F 61% 29.83 in 6.2 mi West 10.4 mph - N/A   Scattered Clouds
3:20 PM 73.4 °F 59.0 °F 61% 29.83 in 6.2 mi WNW 6.9 mph - N/A   Scattered Clouds
3:50 PM 71.6 °F 59.0 °F 64% 29.80 in 6.2 mi West 5.8 mph - N/A   Scattered Clouds
4:20 PM 71.6 °F 60.8 °F 69% 29.80 in 6.2 mi West 3.5 mph - N/A   Scattered Clouds
4:50 PM 71.6 °F 59.0 °F 64% 29.80 in 6.2 mi WSW 3.5 mph - N/A   Mostly Cloudy
5:00 PM 72 °F 58 °F 53% 29.81 in 25 mi West 2.2 mph - -   Mostly Cloudy
5:20 PM 71.6 °F 59.0 °F 64% 29.80 in 6.2 mi Variable 2.3 mph - N/A Rain Light Rain
5:50 PM 71.6 °F 59.0 °F 64% 29.80 in 6.2 mi SW 3.5 mph - N/A   Mostly Cloudy
6:20 PM 71.6 °F 60.8 °F 69% 29.80 in 6.2 mi WSW 4.6 mph - N/A Rain Light Rain
6:50 PM 68.0 °F 60.8 °F 78% 29.80 in 6.2 mi West 3.5 mph - N/A Rain Light Rain
7:20 PM 66.2 °F 62.6 °F 88% 29.80 in 3.1 mi East 3.5 mph - N/A Rain Light Rain
7:50 PM 66.2 °F 60.8 °F 83% 29.80 in 6.2 mi ESE 3.5 mph - N/A   Mostly Cloudy
8:20 PM 66.2 °F 60.8 °F 83% 29.83 in 6.2 mi Variable 2.3 mph - N/A   Mostly Cloudy
8:50 PM 64.4 °F 59.0 °F 83% 29.83 in 6.2 mi Variable 2.3 mph - N/A   Mostly Cloudy
9:20 PM 64.4 °F 60.8 °F 88% 29.83 in 6.2 mi Variable 2.3 mph - N/A   Mostly Cloudy
9:50 PM 64.4 °F 60.8 °F 88% 29.83 in 6.2 mi South 2.3 mph - N/A   Mostly Cloudy
10:20 PM 64.4 °F 59.0 °F 83% 29.83 in 6.2 mi South 5.8 mph - N/A   Scattered Clouds
10:50 PM 62.6 °F 60.8 °F 94% 29.83 in 6.2 mi Calm Calm - N/A   Mostly Cloudy
11:00 PM 63 °F 60 °F 89% 29.83 in 9 mi ENE 2.2 mph - -   Mostly Cloudy
11:20 PM 62.6 °F 60.8 °F 94% 29.83 in 6.2 mi Variable 2.3 mph - N/A   Mostly Cloudy
11:50 PM 62.6 °F 59.0 °F 88% 29.80 in 6.2 mi Variable 2.3 mph - N/A   Mostly Cloudy